Date,TemperatureHighF,TemperatureAvgF,TemperatureLowF,DewpointHighF,DewpointAvgF,DewpointLowF,HumidityHigh,HumidityAvg,HumidityLow,PressureMaxIn,PressureMinIn,WindSpeedMaxMPH,WindSpeedAvgMPH,GustSpeedMaxMPH,PrecipitationSumIn
2013-7-1,91,73,60,65,61,56,98,71,31,29.87,29.79,21,8,36,0.00
2013-7-2,81,69,59,64,61,56,94,76,52,29.98,29.87,25,9,41,0.00
2013-7-3,82,68,57,63,61,56,98,81,52,29.91,29.78,25,12,38,0.00
2013-7-4,79,68,59,63,60,58,98,80,51,29.82,29.72,25,15,39,0.00
2013-7-5,79,67,58,63,60,57,97,80,49,29.83,29.74,22,10,39,0.00
2013-7-6,79,67,58,64,61,57,97,84,60,29.82,29.72,22,10,35,0.00
2013-7-7,82,68,59,64,61,57,97,80,51,29.84,29.75,24,9,36,0.00
2013-7-8,93,68,52,62,56,50,95,69,29,29.91,29.84,20,6,39,0.00
2013-7-9,84,72,57,62,57,49,81,59,40,29.96,29.91,29,11,44,0.00
2013-7-10,79,68,60,65,58,-100,92,75,51,29.96,29.89,22,9,34,0.00
2013-7-11,76,70,65,65,64,61,92,80,66,29.96,29.88,14,8,26,0.00
2013-7-12,83,69,57,65,59,54,97,76,40,29.91,29.83,24,8,34,0.00
2013-7-13,80,67,56,62,59,55,97,78,50,29.93,29.83,24,10,37,0.00
2013-7-14,81,68,54,63,59,53,98,76,48,29.92,29.79,25,9,38,0.00
2013-7-15,85,70,55,62,58,47,94,70,35,29.86,29.78,22,10,35,0.00
2013-7-16,85,76,64,59,51,45,59,43,27,29.96,29.87,21,13,34,0.00
2013-7-17,90,70,49,49,46,42,84,46,20,30.01,29.94,20,7,34,0.00
2013-7-18,81,71,51,61,55,45,89,59,39,29.98,29.84,24,11,37,0.00
2013-7-19,79,66,54,62,57,51,92,74,52,29.89,29.79,25,10,45,0.00
2013-7-20,77,65,56,64,58,-100,96,81,60,29.87,29.76,25,11,41,0.00
2013-7-21,71,66,62,64,62,60,94,87,76,29.91,29.80,22,10,33,0.00
2013-7-22,82,69,62,66,62,59,98,81,54,29.96,29.89,19,9,33,0.07
2013-7-23,80,68,58,62,59,55,96,76,44,30.01,29.91,23,9,51,0.01
2013-7-24,79,68,57,62,59,56,96,75,49,29.96,29.86,24,11,39,0.00
2013-7-25,78,66,56,62,59,55,98,81,56,30.00,29.89,26,12,41,0.00
2013-7-26,83,69,59,65,61,58,96,78,50,30.08,29.96,18,8,32,0.00
2013-7-27,78,68,59,62,60,57,98,77,53,30.00,29.85,25,13,39,0.00
2013-7-28,71,63,57,62,59,56,99,88,70,29.92,29.84,24,12,40,0.00
2013-7-29,76,65,57,59,57,53,98,77,52,30.01,29.91,21,9,35,0.00
2013-7-30,76,64,52,59,56,49,93,76,51,30.11,30.01,19,9,33,0.00
2013-7-31,73,63,50,59,55,48,96,76,59,30.10,29.98,21,9,33,0.00